WetterOnline ( http://www.wetteronline.de )

Wetter aktuell Schwandorf

Aktuelles Wetter: Waldmünchen (499m)

6-stündlich | Neueste Meldungen
Ortszeit Temperatur Wetter
Do, 19.10. 2:00 5.6° C Nebel
Mi, 18.10. 20:00 9.9° C Nebel
Mi, 18.10. 14:00 15.3° C bedeckt
Mi, 18.10. 8:00 4.1° C Nebel
Ortszeit Temperatur Wetter
Do, 19.10. 5:30 4.6° C Nebel
Do, 19.10. 5:00 4.8° C Nebel
Do, 19.10. 4:30 5.0° C Nebel
Do, 19.10. 4:00 5.1° C Nebel
Do, 19.10. 3:30 5.1° C Nebel
Do, 19.10. 3:00 5.0° C Nebel
Ortszeit Relative Feuchte Sichtweite
Do, 19.10. 2:00 100% <100 m
Mi, 18.10. 20:00 99% 0.2 km
Mi, 18.10. 14:00 80% 5.0 km
Mi, 18.10. 8:00 99% 100 m
Ortszeit Relative Feuchte Sichtweite
Do, 19.10. 5:30 100% 100 m
Do, 19.10. 5:00 100% 100 m
Do, 19.10. 4:30 100% 100 m
Do, 19.10. 4:00 100% <100 m
Do, 19.10. 3:30 100% <100 m
Do, 19.10. 3:00 100% 100 m
Ortszeit Niederschlagsmenge Niederschlagsart
Do, 19.10. 2:00 0.1 l/m2 in 6 Std. -
Mi, 18.10. 20:00 0.0 l/m2 in 12 Std. -
Mi, 18.10. 14:00 0.0 l/m2 in 6 Std. -
Mi, 18.10. 8:00 0.0 l/m2 in 12 Std. -
Ortszeit Niederschlagsmenge Niederschlagsart
Do, 19.10. 5:30 keine Meldung -
Do, 19.10. 5:00 0.1 l/m2 in 1 Std. -
Do, 19.10. 4:30 keine Meldung -
Do, 19.10. 4:00 0.1 l/m2 in 1 Std. -
Do, 19.10. 3:30 keine Meldung -
Do, 19.10. 3:00 0.1 l/m2 in 1 Std. -
Ortszeit Stärke Spitze Richtung
km/h Bft. km/h Grad Sektor
Do, 19.10. 2:00 0 0 7 - -
Mi, 18.10. 20:00 6 1 13 80° O
Mi, 18.10. 14:00 6 1 11 250° W
Mi, 18.10. 8:00 0 0 7 - -
Ortszeit Stärke Spitze Richtung
km/h Bft. km/h Grad Sektor
Do, 19.10. 5:30 4 1 7 130° SO
Do, 19.10. 5:00 7 2 7 90° O
Do, 19.10. 4:30 7 2 7 90° O
Do, 19.10. 4:00 6 1 6 90° O
Do, 19.10. 3:30 4 1 4 90° O
Do, 19.10. 3:00 0 0 4 - -
Ortszeit Untergrenze Bedeckung Gattung
total tief tief mittel hoch
Do, 19.10. 2:00 <30 m 8/8 8/8 - - -
Mi, 18.10. 20:00 - 0/8 0/8 - - -
Mi, 18.10. 14:00 5700 m 8/8 8/8 - - -
Mi, 18.10. 8:00 <30 m 8/8 7/8 - - -
Ortszeit Bedeckungsgrad in Achtel und Wolkenuntergrenze
Do, 19.10. 5:30 8(<30m)
Do, 19.10. 5:00 8(<30m)
Do, 19.10. 4:30 8(<30m)
Do, 19.10. 4:00 8(<30m)
Do, 19.10. 3:30 8(<30m)
Do, 19.10. 3:00 8(<30m)
Ortszeit Luftdruck NN (hPa) Tendenz (hPa in 3 Std.)
Do, 19.10. 2:00 1018 + 0,3
Mi, 18.10. 20:00 1016 + 0,4
Mi, 18.10. 14:00 1016 - 0,9
Mi, 18.10. 8:00 1020 - 0,4
Ortszeit Luftdruck NN (hPa) Tendenz (hPa in 3 Std.)
Do, 19.10. 5:30 1018 - 0,3
Do, 19.10. 5:00 1018 - 0,3
Do, 19.10. 4:30 1018 + 0,1
Do, 19.10. 4:00 1018 + 0,2
Do, 19.10. 3:30 1018 + 0,3
Do, 19.10. 3:00 1018 + 0,3
Ortszeit Schneehöhe (cm)
Do, 19.10. 2:00 0
Mi, 18.10. 20:00 0
Mi, 18.10. 14:00 0
Mi, 18.10. 8:00 0
Ortszeit Schneehöhe (cm)
Do, 19.10. 5:30 0
Do, 19.10. 5:00 0
Do, 19.10. 4:30 0
Do, 19.10. 4:00 0
Do, 19.10. 3:30 0
Do, 19.10. 3:00 0
Link zu dieser Seite / Seite empfehlen

Das Wetter in ...